Regional Weather Roundup
Issued by NWS

Home | Current Version | Previous Version | Text Only | Print | Product List | Glossary On
Versions: 1 2 3 4 5 6 7 8 9 10 11 12 13 14 15 16 17 18 19 20 21 22 23 24 25 26 27 28 29 30 31 32 33 34 35 36 37 38 39 40 41 42 43 44 45 46 47 48 49 50
000
ASUS44 KMEG 302010
RWRTN
TENNESSEE HOURLY STATE WEATHER ROUNDUP
NATIONAL WEATHER SERVICE MEMPHIS TN
300 PM CDT TUE SEP 30 2014

TNZ002-004-019-021-049-052-054-088>092-302100-
WEST TENNESSEE

CITY           SKY/WX    TMP DP  RH WIND       PRES   REMARKS
MEMPHIS INTL   MOSUNNY   88  57  34 CALM      29.88F
NWS MEMPHIS      N/A     86 N/A N/A MISG        N/A
JACKSON        MOSUNNY   86  57  37 VRB3      29.90F
DYERSBURG      SUNNY     84  54  34 E6        29.90F
UNION CITY     SUNNY     84  50  30 CALM      29.89F
PARIS          MOSUNNY   84  52  32 NE6       29.90F
HUNTINGDON     SUNNY     85  51  30 VRB3      29.90
LEXINGTON      SUNNY     84  55  37 SE5       29.89F
SAVANNAH       PTSUNNY   84  59  42 N3        29.90F
$$

TNZ008-025-027-028-033-062-065-066-302100-
NORTH MIDDLE TENNESSEE

CITY           SKY/WX    TMP DP  RH WIND       PRES   REMARKS
NASHVILLE      MOSUNNY   87  50  27 NE10      29.90F
DICKSON        SUNNY     84  50  30 N7        29.91F
PORTLAND       SUNNY     82  48  30 NE10      29.91F
CLARKSVILLE    MOSUNNY   87  51  28 VRB5      29.89F
LEBANON        SUNNY     84  49  29 NW6       29.89F
SMYRNA         SUNNY     88  50  27 VRB3      29.91F
MURFREESBORO   SUNNY     85  48  27 N8        29.90F
COOKEVILLE     SUNNY     84  57  39 W6        29.92F
GALLATIN       SUNNY     86  50  28 N8        29.91F
CROSSVILLE     MOSUNNY   79  52  38 N9        29.96F
$$

TNZ061-075-076-078-094-096-097-302100-
SOUTH MIDDLE TENNESSEE

CITY           SKY/WX    TMP DP  RH WIND       PRES   REMARKS
LEWISBURG      PTSUNNY   84  60  44 NE3       29.90F
FAYETTEVILLE   PTSUNNY   82  55  39 W5        29.91F
TULLAHOMA      MOSUNNY   82  55  39 VRB7      29.92F
WINCHESTER     MOSUNNY   82  59  44 VRB3      29.91F
MCMINNVILLE    SUNNY     82  57  42 NE7       29.92F
COLUMBIA       MOSUNNY   84  57  39 N3        29.89F
SHELBYVILLE    MOSUNNY   86  55  35 W5        29.91F
$$

TNZ017-018-042-046-047-302100-
NORTHEAST TENNESSEE

CITY           SKY/WX    TMP DP  RH WIND       PRES   REMARKS
TRI CITIES     MOSUNNY   79  53  40 VRB5      29.92F
ELIZABETHTON   CLEAR     79  52  38 W6        29.92F
$$

TNZ012-013-036-069-073-074-302100-
CENTRAL EAST TENNESSEE

CITY           SKY/WX    TMP DP  RH WIND       PRES   REMARKS
KNOXVILLE      MOSUNNY   82  56  40 VRB6      29.91F
OAK RIDGE      SUNNY     80  59  48 CALM      29.93F
GATLINBURG     CLEAR     82  54  36 NW7       29.91F
MORRISTOWN     CLEAR     79  57  47 W7        29.94S
$$

TNZ083-085-099-302100-
SOUTHEAST TENNESSEE

CITY           SKY/WX    TMP DP  RH WIND       PRES   REMARKS
CHATTANOOGA    MOSUNNY   84  57  39 VRB5      29.91F
$$

SKY/WX REPORTED AS FAIR MEANS FEW OR NO CLOUDS BELOW
12 THOUSAND FEET.



USA.gov is the U.S. government's official web portal to all federal, state and local government web resources and services.